Location: *
(46.3500°N, 10.9000°E)
Time: 02:32:17
(UTC+00:00)

SL-4 R/B - Pass Details

Date: 09 April 2020
Orbit: 428 x 666 km, 51.6° (Epoch: 03 June)

Event Time Altitude Azimuth Distance (km) Brightness Sun altitude
Rises 20:42:42 0° 288° (WNW) 2,395 6.2 -25.6°
Reaches altitude 10° 20:44:54 10° 298° (WNW) 1,535 5.2 -25.9°
Enters shadow 20:47:15 29° 335° (NNW) 826 3.5 -26.1°
